AV279 Weather Reports


time (UTC)temp
C
wind
direction
speed
KPH
gust
KPH
rain 1hr
cm
rain 24hr
cm
rain mn
cm
humidity
%
barometer
mb
20260508074620 14 180 3.2 4.8 0.00 0.00 0.00 75 1016.5
20260508073630 13 135 1.6 3.2 0.00 0.00 0.00 78 1016.5
20260508072620 13 203 1.6 3.2 0.00 0.00 0.00 78 1016.5
20260508071817 13 0.0 1.6 0.00 0.00 0.00 80 1016.6
20260508070620 12 0.0 1.6 0.00 0.00 0.00 82 1016.5
20260508065620 11 0.0 1.6 0.00 0.00 0.00 85 1016.5
20260508064620 11 0.0 0.0 0.00 0.00 0.00 87 1016.3
20260508063651 10 203 1.6 1.6 0.00 0.00 0.00 88 1016.4
20260508062631 10 0.0 0.0 0.00 0.00 0.00 90 1016.2
20260508061815 9 0.0 0.0 0.00 0.00 0.00 90 1016.1
20260508061030 8 0.0 1.6 0.00 0.00 0.00 90 1016.0
20260508060019 8 0.0 0.0 0.00 0.00 0.00 90 1016.1
20260508055040 8 0.0 0.0 0.00 0.00 0.00 90 1016.0
20260508054019 8 0.0 0.0 0.00 0.00 0.00 90 1016.0
20260508053020 8 0.0 0.0 0.00 0.00 0.00 89 1016.0
20260508052020 8 0.0 0.0 0.00 0.00 0.00 89 1015.8
20260508051020 8 0.0 0.0 0.00 0.00 0.00 89 1015.9
20260508050051 8 0.0 0.0 0.00 0.00 0.00 89 1015.8
20260508045019 8 0.0 0.0 0.00 0.00 0.00 89 1015.6
20260508044031 8 0.0 0.0 0.00 0.00 0.00 89 1015.5
20260508043020 8 0.0 0.0 0.00 0.00 0.00 88 1015.6
20260508042030 8 0.0 0.0 0.00 0.00 0.00 88 1015.4
20260508041040 8 0.0 0.0 0.00 0.00 0.00 88 1015.5
20260508040039 8 0.0 0.0 0.00 0.00 0.00 88 1015.6
20260508035030 8 0.0 0.0 0.00 0.00 0.00 87 1015.5
20260508034030 8 0.0 0.0 0.00 0.00 0.00 87 1015.5
20260508033030 8 0.0 0.0 0.00 0.00 0.00 87 1015.5
20260508032020 8 0.0 0.0 0.00 0.00 0.00 86 1015.4
20260508031020 8 0.0 0.0 0.00 0.00 0.00 86 1015.4
20260508030040 8 45 1.6 3.2 0.00 0.00 0.00 86 1015.3
20260508025019 8 0.0 0.0 0.00 0.00 0.00 85 1015.5
20260508024020 9 0.0 0.0 0.00 0.00 0.00 85 1015.4
20260508023019 9 0.0 0.0 0.00 0.00 0.00 85 1015.5
20260508022030 9 0.0 0.0 0.00 0.00 0.00 84 1015.6
20260508021019 10 0.0 0.0 0.00 0.00 0.00 84 1015.6
20260508020050 10 23 1.6 1.6 0.00 0.00 0.00 84 1015.6
20260508015019 10 45 3.2 4.8 0.00 0.00 0.00 83 1015.6
20260508014020 10 0.0 0.0 0.00 0.00 0.00 83 1015.6
20260508013019 10 0.0 0.0 0.00 0.00 0.00 83 1015.6
20260508012019 10 0.0 0.0 0.00 0.00 0.00 82 1015.5
20260508011019 10 0.0 0.0 0.00 0.00 0.00 82 1015.6
20260508010040 10 0.0 0.0 0.00 0.00 0.00 82 1015.7
20260508005020 10 0.0 0.0 0.00 0.00 0.00 82 1015.7
20260508004019 10 0.0 0.0 0.00 0.00 0.00 82 1015.7
20260508003030 10 45 1.6 1.6 0.00 0.00 0.00 82 1015.8
20260508002030 10 0.0 1.6 0.00 0.00 0.00 82 1015.8
20260508001030 10 0.0 0.0 0.00 0.00 0.00 82 1015.8
20260508000030 10 0.0 0.0 0.00 0.00 0.00 82 1015.8
20260507235020 10 0.0 1.6 0.00 0.00 0.00 82 1015.9
20260507234020 10 0.0 0.0 0.00 0.00 0.00 82 1016.0
20260507233020 10 0.0 0.0 0.00 0.00 0.00 82 1016.0
20260507232142 10 0.0 0.0 0.00 0.00 0.00 82 1016.1
20260507231020 10 0.0 0.0 0.00 0.00 0.00 82 1016.1
20260507230019 10 0.0 1.6 0.00 0.00 0.00 83 1016.3
20260507225020 10 0.0 0.0 0.00 0.00 0.00 83 1016.2
20260507224019 10 0.0 0.0 0.00 0.00 0.00 83 1016.1
20260507223041 10 0.0 0.0 0.00 0.00 0.00 83 1016.3
20260507222020 10 0.0 0.0 0.00 0.00 0.00 82 1016.2
20260507221059 10 0.0 0.0 0.00 0.00 0.00 82 1016.3
20260507220020 10 0.0 1.6 0.00 0.00 0.00 82 1016.3
20260507215030 11 0.0 0.0 0.00 0.00 0.00 82 1016.3
20260507214030 11 0.0 0.0 0.00 0.00 0.00 81 1016.3
20260507213019 11 0.0 0.0 0.00 0.00 0.00 81 1016.5
20260507212030 11 68 1.6 3.2 0.00 0.00 0.00 81 1016.3
20260507211039 11 0.0 0.0 0.00 0.00 0.00 81 1016.4
20260507210020 11 45 1.6 3.2 0.00 0.00 0.00 81 1016.3
20260507205019 11 0.0 1.6 0.00 0.00 0.00 81 1016.4
20260507204020 11 68 1.6 3.2 0.00 0.00 0.00 81 1016.2
20260507203040 11 45 1.6 3.2 0.00 0.00 0.00 80 1016.2
20260507202019 11 0.0 1.6 0.00 0.00 0.00 80 1016.2
20260507201039 11 90 1.6 3.2 0.00 0.00 0.00 80 1016.0
20260507200030 11 113 1.6 3.2 0.00 0.00 0.00 80 1015.9
20260507195019 11 45 1.6 3.2 0.00 0.00 0.00 79 1015.8
20260507194022 11 45 1.6 3.2 0.00 0.00 0.00 79 1015.7
20260507193039 11 45 1.6 1.6 0.00 0.00 0.00 79 1015.6
20260507192030 12 68 1.6 3.2 0.00 0.00 0.00 79 1015.7
20260507191039 12 45 1.6 3.2 0.00 0.00 0.00 78 1015.6
20260507190030 12 23 4.8 6.4 0.00 0.00 0.00 78 1015.5
20260507185030 12 23 1.6 3.2 0.00 0.00 0.00 78 1015.5
20260507184019 12 0.0 1.6 0.00 0.00 0.00 77 1015.4
20260507183019 12 0 1.6 3.2 0.00 0.00 0.00 77 1015.4
20260507182019 12 45 3.2 4.8 0.00 0.00 0.00 77 1015.6
20260507181039 12 0.0 1.6 0.00 0.00 0.00 76 1015.5
20260507180019 12 45 3.2 4.8 0.00 0.00 0.00 76 1015.5
20260507175019 12 68 1.6 4.8 0.00 0.00 0.00 76 1015.5
20260507174019 12 68 1.6 3.2 0.00 0.00 0.00 76 1015.5
20260507173041 12 45 1.6 3.2 0.00 0.00 0.00 77 1015.4
20260507172019 12 23 1.6 4.8 0.00 0.00 0.00 77 1015.5
20260507171051 12 23 4.8 8.0 0.00 0.00 0.00 77 1015.6
20260507170019 12 90 1.6 4.8 0.00 0.00 0.00 77 1015.6
20260507165019 12 0.0 1.6 0.00 0.00 0.00 78 1015.6
20260507164039 12 68 3.2 6.4 0.00 0.00 0.00 78 1015.5
20260507163218 12 23 3.2 6.4 0.00 0.00 0.00 78 1015.6
20260507162219 12 23 3.2 4.8 0.00 0.00 0.00 78 1015.6
20260507161219 12 0 3.2 4.8 0.00 0.00 0.00 78 1015.6
20260507160219 12 45 3.2 6.4 0.00 0.00 0.00 77 1015.7
20260507155250 12 23 6.4 12.9 0.00 0.00 0.00 77 1015.5
20260507154219 12 45 4.8 6.4 0.00 0.00 0.00 77 1015.6
20260507153219 13 0 4.8 8.0 0.00 0.00 0.00 77 1015.6
20260507152219 13 23 6.4 12.9 0.00 0.00 0.00 77 1015.6
20260507151219 13 45 3.2 6.4 0.00 0.00 0.00 77 1015.5
20260507150219 13 338 3.2 4.8 0.00 0.00 0.00 76 1015.6
20260507145219 13 315 1.6 4.8 0.00 0.00 0.00 76 1015.6
20260507144219 13 23 6.4 8.0 0.00 0.00 0.00 75 1015.6
20260507143218 13 23 1.6 9.7 0.00 0.00 0.00 75 1015.7
20260507142218 13 0 6.4 16.1 0.00 0.00 0.00 74 1015.7
20260507141240 13 23 6.4 11.3 0.00 0.00 0.00 74 1015.6
20260507140240 13 45 3.2 4.8 0.00 0.00 0.00 75 1015.7
20260507135219 13 0 6.4 12.9 0.00 0.00 0.00 75 1015.7
20260507134219 13 45 3.2 8.0 0.00 0.00 0.00 75 1015.7
20260507133426 13 23 6.4 12.9 0.00 0.00 0.00 75 1015.7
20260507132419 13 45 8.0 12.9 0.00 0.00 0.00 74 1015.6
20260507131438 14 0 6.4 14.5 0.00 0.00 0.00 74 1015.8
20260507130418 13 23 1.6 4.8 0.00 0.00 0.00 74 1015.8
20260507125419 14 23 3.2 4.8 0.00 0.00 0.00 75 1015.7
20260507124645 13 23 8.0 12.9 0.00 0.00 0.00 75 1015.8
20260507123918 13 45 11.3 14.5 0.00 0.00 0.00 76 1015.8
20260507122918 13 315 4.8 8.0 0.00 0.00 0.00 77 1015.7
20260507121940 13 0 3.2 8.0 0.00 0.00 0.00 76 1015.7
20260507120950 13 180 1.6 3.2 0.00 0.00 0.00 75 1015.6
20260507115950 13 23 1.6 4.8 0.00 0.00 0.00 75 1015.6
20260507114918 14 270 1.6 3.2 0.00 0.00 0.00 74 1015.6
20260507113918 14 338 3.2 6.4 0.00 0.00 0.00 73 1015.5
20260507112940 15 68 1.6 3.2 0.00 0.00 0.00 72 1015.6
20260507111918 15 270 3.2 4.8 0.00 0.00 0.00 70 1015.6
20260507110949 15 0.0 1.6 0.00 0.00 0.00 72 1015.7
20260507105918 14 0.0 1.6 0.00 0.00 0.00 73 1015.6
20260507104931 13 0.0 1.6 0.00 0.00 0.00 73 1015.8
20260507103918 14 338 3.2 6.4 0.00 0.00 0.00 73 1015.8
20260507102929 14 23 3.2 4.8 0.00 0.00 0.00 75 1015.9
20260507101929 13 293 3.2 4.8 0.00 0.00 0.00 75 1015.8
20260507100918 13 135 3.2 4.8 0.00 0.00 0.00 77 1015.8
20260507095940 13 315 1.6 3.2 0.00 0.00 0.00 78 1015.6
20260507094920 13 23 3.2 6.4 0.00 0.00 0.00 77 1015.6
20260507093929 13 0 1.6 4.8 0.00 0.00 0.00 78 1015.6
20260507092929 13 0.0 1.6 0.00 0.00 0.00 79 1015.5
20260507091918 13 0.0 1.6 0.00 0.00 0.00 79 1015.4
20260507090941 12 0.0 1.6 0.00 0.00 0.00 81 1015.3
20260507085918 12 0.0 1.6 0.00 0.00 0.00 80 1015.3
20260507084920 12 338 1.6 3.2 0.00 0.00 0.00 80 1015.4
20260507084010 12 0.0 1.6 0.00 0.00 0.00 81 1015.4
20260507082940 12 0 1.6 3.2 0.00 0.00 0.00 81 1015.3
20260507081920 12 113 1.6 4.8 0.00 0.00 0.00 81 1015.0
20260507080920 11 0.0 1.6 0.00 0.00 0.00 81 1015.1
20260507075918 12 68 4.8 6.4 0.00 0.00 0.00 81 1015.0